Regional Weather Roundup
Issued by NWS

Home | Current Version | Previous Version | Text Only | Print | Product List | Glossary On
Versions: 1 2 3 4 5 6 7 8 9 10 11 12 13 14 15 16 17 18 19 20 21 22 23 24 25 26 27 28 29 30 31 32 33 34 35 36 37 38 39 40 41 42 43 44 45 46 47 48 49 50
293
ASUS44 KJAN 302010
RWRMS

MISSISSIPPI HOURLY WEATHER ROUNDUP
NATIONAL WEATHER SERVICE JACKSON MS
300 PM CDT TUE SEP 30 2014

NOTE: "FAIR: INDICATES FEW OR NO CLOUDS BELOW 12,000 FEET WITH NO
SIGNIFICANT WEATHER AND/OR OBSTRUCTIONS TO VISIBILITY.

MSZ001>002-007>008-010>013-018>021-025>028-034>036-302100-
NORTHWEST MISSISSIPPI

CITY           SKY/WX    TMP DP  RH WIND       PRES   REMARKS
CLARKSDALE     FAIR      88  57  35 E3        29.87F
CLEVELAND      FAIR      89  58  35 CALM      29.85F
GREENWOOD      MOSUNNY   88  62  41 CALM      29.86F
GREENVILLE     MOSUNNY   90  56  31 SW8       29.85F
GRENADA        FAIR      86  59  39 E6        29.88F
OLIVE BRANCH   PTSUNNY   84  63  48 E5        29.89F
OXFORD         PTSUNNY   82  61  47 N5        29.90F
TUNICA         PTCLDY    88  55  33 CALM      29.87F
$$

MSZ003>006-009-014>017-022>024-029>033-037>039-302100-
NORTHEAST MISSISSIPPI

CITY           SKY/WX    TMP DP  RH WIND       PRES   REMARKS
COLUMBUS AFB   SUNNY     85  61  44 SW3       29.88F
CORINTH        FAIR      86  55  35 VRB6      29.88F
GOLDN TRIANGLE PTSUNNY   86  61  42 NE7       29.88F
STARKVILLE     FAIR      86  59  39 SE3       29.88F HAZE
TUPELO         SUNNY     87  57  35 SE6       29.88F
$$

MSZ040-058-302100-
CENTRAL MISSISSIPPI

CITY           SKY/WX    TMP DP  RH WIND       PRES   REMARKS
JACKSON INTL   MOSUNNY   88  62  41 VRB5      29.86F
JACKSON HAWKNS MOSUNNY   88  63  43 VRB6      29.87F
MERIDIAN KEY   MOSUNNY   83  60  45 NW5       29.88F
MERIDIAN NAS   MOSUNNY   85  59  41 N6        29.88F
RAYMOND        FAIR      84  81  89 E3        29.86F HX  98
VICKSBURG      MOSUNNY   89  64  43 VRB5      29.85F HX  90
$$

MSZ059>079-302100-
SOUTH MISSISSIPPI

CITY           SKY/WX    TMP DP  RH WIND       PRES   REMARKS
BROOKHAVEN     FAIR      86  66  51 S3        29.88F
COLUMBIA       MOCLDY    86  68  54 E5        29.85F
HATTIESBURG    MOSUNNY   84  69  60 NE9       29.88F
MCCOMB         CLOUDY    85  66  53 NE5       29.86F
NATCHEZ        PTSUNNY   88  70  55 SW6       29.86F HX  92
PINE BELT      MOSUNNY   82  68  61 NE6       29.90F
$$

MSZ080>082-302100-
COASTAL MISSISSIPPI

CITY           SKY/WX    TMP DP  RH WIND       PRES   REMARKS
BAY ST LOUIS   MOSUNNY   84  70  61 S8        29.86F
BILOXI         PTSUNNY   84  70  61 NE8       29.86S
PASCAGOULA     MOSUNNY   83  69  62 N5        29.87F
GULFPORT       MOSUNNY   81  72  74 SE10      29.86F
$$



USA.gov is the U.S. government's official web portal to all federal, state and local government web resources and services.